• In Deutschland
  • Länderverzeichnis
  • Für 7 Tage
  • Wassertemperatur
  • Satellitenkarten
  • Wetterkarte
  • Widgets
  • user-avatar
    Anmelden

    Stündliche Wetter Tahancha

    Heute, 23 Juli, Montag

    Zeit Temperatur Niederschläge Wind Luftdruck Luftfeuchtigkeit
    00:00 +19°C° 0 mm 2 m/S 741 mmHg 91%
    01:00 +18°C° 0 mm 2 m/S 741 mmHg 93%
    02:00 +18°C° 0 mm 2 m/S 740 mmHg 94%
    03:00 +18°C° 0 mm 2 m/S 740 mmHg 94%
    04:00 +18°C° 0 mm 2 m/S 740 mmHg 94%
    05:00 +18°C° 0 mm 2 m/S 740 mmHg 95%
    06:00 +19°C° 0 mm 2 m/S 740 mmHg 90%
    07:00 +21°C° 0 mm 2 m/S 740 mmHg 86%
    08:00 +23°C° 0 mm 2 m/S 740 mmHg 82%
    09:00 +24°C° 0,4 mm 2 m/S 740 mmHg 78%
    10:00 +25°C° 0,4 mm 2 m/S 740 mmHg 75%
    11:00 +26°C° 0,4 mm 2 m/S 740 mmHg 72%
    12:00 +26°C° 0,8 mm 2 m/S 739 mmHg 70%
    13:00 +27°C° 0,8 mm 2 m/S 739 mmHg 69%
    14:00 +27°C° 0,8 mm 2 m/S 739 mmHg 68%
    15:00 +27°C° 0,7 mm 2 m/S 739 mmHg 69%
    16:00 +27°C° 0,7 mm 1 m/S 739 mmHg 69%
    17:00 +27°C° 0,7 mm 1 m/S 739 mmHg 70%
    18:00 +25°C° 1 mm 1 m/S 739 mmHg 75%
    19:00 +24°C° 1 mm 1 m/S 739 mmHg 80%
    20:00 +22°C° 1 mm 1 m/S 739 mmHg 86%
    21:00 +22°C° 0,1 mm 1 m/S 739 mmHg 87%
    22:00 +22°C° 0,1 mm 1 m/S 739 mmHg 88%
    23:00 +21°C° 0,1 mm 1 m/S 739 mmHg 89%

    Morgen, 24 Juli, Dienstag

    Zeit Temperatur Niederschläge Wind Luftdruck Luftfeuchtigkeit
    00:00 +21°C° 0,2 mm 1 m/S 739 mmHg 90%
    01:00 +20°C° 0,2 mm 1 m/S 739 mmHg 91%
    02:00 +20°C° 0,2 mm 1 m/S 739 mmHg 92%
    03:00 +20°C° 0 mm 1 m/S 739 mmHg 92%
    04:00 +20°C° 0 mm 1 m/S 739 mmHg 93%
    05:00 +20°C° 0 mm 1 m/S 740 mmHg 93%
    06:00 +21°C° 0 mm 1 m/S 740 mmHg 89%
    07:00 +23°C° 0 mm 1 m/S 740 mmHg 85%
    08:00 +24°C° 0 mm 1 m/S 740 mmHg 81%
    09:00 +25°C° 0,9 mm 1 m/S 740 mmHg 77%
    10:00 +26°C° 0,9 mm 2 m/S 741 mmHg 73%
    11:00 +27°C° 0,9 mm 2 m/S 741 mmHg 68%
    12:00 +27°C° 1,5 mm 2 m/S 741 mmHg 67%
    13:00 +28°C° 1,5 mm 3 m/S 741 mmHg 66%
    14:00 +28°C° 1,5 mm 3 m/S 741 mmHg 64%
    15:00 +28°C° 0,7 mm 3 m/S 741 mmHg 66%
    16:00 +28°C° 0,7 mm 2 m/S 741 mmHg 67%
    17:00 +28°C° 0,7 mm 1 m/S 741 mmHg 68%
    18:00 +27°C° 0,1 mm 1 m/S 741 mmHg 71%
    19:00 +25°C° 0,1 mm 1 m/S 741 mmHg 74%
    20:00 +24°C° 0,1 mm 1 m/S 741 mmHg 77%
    21:00 +23°C° 0,7 mm 1 m/S 742 mmHg 79%
    22:00 +23°C° 0,7 mm 1 m/S 742 mmHg 81%
    23:00 +21°C° 0,7 mm 2 m/S 742 mmHg 83%

    übermorgen, 25 Juli, Mittwoch

    Zeit Temperatur Niederschläge Wind Luftdruck Luftfeuchtigkeit
    00:00 +22°C° 0,5 mm 1 m/S 742 mmHg 84%
    01:00 +21°C° 0,5 mm 1 m/S 742 mmHg 85%
    02:00 +21°C° 0,5 mm 1 m/S 742 mmHg 86%
    03:00 +21°C° 0,2 mm 1 m/S 742 mmHg 86%
    04:00 +21°C° 0,2 mm 1 m/S 742 mmHg 86%
    05:00 +21°C° 0,2 mm 1 m/S 742 mmHg 86%
    06:00 +23°C° 0 mm 2 m/S 742 mmHg 83%
    07:00 +24°C° 0 mm 2 m/S 742 mmHg 80%
    08:00 +26°C° 0 mm 3 m/S 743 mmHg 77%
    09:00 +27°C° 0,4 mm 3 m/S 743 mmHg 71%
    10:00 +28°C° 0,4 mm 3 m/S 743 mmHg 66%
    11:00 +29°C° 0,4 mm 3 m/S 743 mmHg 61%
    12:00 +30°C° 0,4 mm 3 m/S 743 mmHg 58%
    13:00 +30°C° 0,4 mm 3 m/S 743 mmHg 56%
    14:00 +31°C° 0,4 mm 2 m/S 743 mmHg 54%
    15:00 +31°C° 0,1 mm 2 m/S 743 mmHg 57%
    16:00 +31°C° 0,1 mm 2 m/S 743 mmHg 60%
    17:00 +30°C° 0,1 mm 2 m/S 743 mmHg 63%
    18:00 +29°C° 0,2 mm 3 m/S 743 mmHg 68%
    19:00 +27°C° 0,2 mm 3 m/S 743 mmHg 73%
    20:00 +25°C° 0,2 mm 3 m/S 743 mmHg 78%
    21:00 +24°C° 0,3 mm 3 m/S 743 mmHg 82%
    22:00 +22°C° 0,3 mm 3 m/S 743 mmHg 85%
    23:00 +22°C° 0,3 mm 3 m/S 744 mmHg 89%

    26 Juli, Donnerstag

    Zeit Temperatur Niederschläge Wind Luftdruck Luftfeuchtigkeit
    00:00 +21°C° 0,7 mm 2 m/S 744 mmHg 90%
    01:00 +21°C° 0,7 mm 2 m/S 744 mmHg 92%
    02:00 +21°C° 0,7 mm 2 m/S 744 mmHg 94%
    03:00 +20°C° 0 mm 2 m/S 744 mmHg 94%
    04:00 +20°C° 0 mm 2 m/S 744 mmHg 94%
    05:00 +20°C° 0 mm 2 m/S 744 mmHg 95%
    06:00 +21°C° 0 mm 3 m/S 744 mmHg 92%
    07:00 +24°C° 0 mm 3 m/S 745 mmHg 89%
    08:00 +25°C° 0 mm 3 m/S 745 mmHg 87%
    09:00 +26°C° 0,3 mm 3 m/S 745 mmHg 82%
    10:00 +27°C° 0,3 mm 4 m/S 745 mmHg 77%
    11:00 +28°C° 0,3 mm 4 m/S 745 mmHg 72%
    12:00 +29°C° 0,3 mm 4 m/S 745 mmHg 70%
    13:00 +29°C° 0,3 mm 4 m/S 745 mmHg 67%
    14:00 +30°C° 0,3 mm 3 m/S 745 mmHg 65%
    15:00 +29°C° 0,6 mm 3 m/S 745 mmHg 68%
    16:00 +29°C° 0,6 mm 4 m/S 745 mmHg 72%
    17:00 +28°C° 0,6 mm 4 m/S 745 mmHg 75%
    18:00 +27°C° 0,1 mm 3 m/S 745 mmHg 80%
    19:00 +26°C° 0,1 mm 3 m/S 745 mmHg 84%
    20:00 +24°C° 0,1 mm 3 m/S 745 mmHg 89%
    21:00 +24°C° 0 mm 3 m/S 745 mmHg 90%
    22:00 +22°C° 0 mm 3 m/S 745 mmHg 91%
    23:00 +23°C° 0 mm 2 m/S 745 mmHg 92%

    27 Juli, Freitag

    Zeit Temperatur Niederschläge Wind Luftdruck Luftfeuchtigkeit
    00:00 +21°C° 0 mm 3 m/S 745 mmHg 93%
    01:00 +21°C° 0 mm 3 m/S 745 mmHg 94%
    02:00 +21°C° 0 mm 3 m/S 745 mmHg 95%
    03:00 +21°C° 0 mm 3 m/S 745 mmHg 96%
    04:00 +21°C° 0 mm 3 m/S 745 mmHg 96%
    05:00 +20°C° 0 mm 3 m/S 745 mmHg 96%
    06:00 +22°C° 0,1 mm 3 m/S 745 mmHg 93%
    07:00 +24°C° 0,1 mm 3 m/S 745 mmHg 89%
    08:00 +25°C° 0,1 mm 3 m/S 745 mmHg 86%
    09:00 +27°C° 0,3 mm 3 m/S 745 mmHg 80%
    10:00 +28°C° 0,3 mm 3 m/S 745 mmHg 74%
    11:00 +30°C° 0,3 mm 3 m/S 745 mmHg 69%
    12:00 +30°C° 0,6 mm 3 m/S 744 mmHg 66%
    13:00 +31°C° 0,6 mm 3 m/S 744 mmHg 63%
    14:00 +31°C° 0,6 mm 2 m/S 744 mmHg 60%
    15:00 +31°C° 1,1 mm 2 m/S 744 mmHg 64%
    16:00 +30°C° 1,1 mm 3 m/S 744 mmHg 69%
    17:00 +30°C° 1,1 mm 3 m/S 744 mmHg 73%
    18:00 +28°C° 0,6 mm 3 m/S 744 mmHg 77%
    19:00 +27°C° 0,6 mm 2 m/S 744 mmHg 81%
    20:00 +25°C° 0,6 mm 2 m/S 744 mmHg 85%
    21:00 +25°C° 0,1 mm 2 m/S 744 mmHg 86%
    22:00 +24°C° 0,1 mm 2 m/S 744 mmHg 87%
    23:00 +24°C° 0,1 mm 2 m/S 744 mmHg 89%

    28 Juli, Samstag

    Zeit Temperatur Niederschläge Wind Luftdruck Luftfeuchtigkeit
    00:00 +22°C° 0,1 mm 3 m/S 744 mmHg 90%
    01:00 +22°C° 0,1 mm 3 m/S 744 mmHg 91%
    02:00 +21°C° 0,1 mm 3 m/S 744 mmHg 92%
    03:00 +21°C° 0,5 mm 3 m/S 744 mmHg 92%
    04:00 +21°C° 0,5 mm 3 m/S 744 mmHg 92%
    05:00 +21°C° 0,5 mm 3 m/S 744 mmHg 92%
    06:00 +21°C° 0 mm 3 m/S 744 mmHg 88%
    07:00 +22°C° 0 mm 4 m/S 744 mmHg 85%
    08:00 +23°C° 0 mm 4 m/S 744 mmHg 81%
    09:00 +25°C° 0 mm 4 m/S 744 mmHg 77%
    10:00 +27°C° 0 mm 4 m/S 744 mmHg 73%
    11:00 +28°C° 0 mm 4 m/S 744 mmHg 69%
    12:00 +29°C° 0 mm 4 m/S 744 mmHg 67%
    13:00 +29°C° 0 mm 4 m/S 744 mmHg 66%
    14:00 +30°C° 0 mm 4 m/S 744 mmHg 64%
    15:00 +30°C° 0 mm 4 m/S 744 mmHg 66%
    16:00 +30°C° 0 mm 3 m/S 744 mmHg 67%
    17:00 +30°C° 0 mm 3 m/S 744 mmHg 68%
    18:00 +28°C° 0,1 mm 3 m/S 744 mmHg 73%
    19:00 +27°C° 0,1 mm 3 m/S 744 mmHg 79%
    20:00 +26°C° 0,1 mm 2 m/S 744 mmHg 84%
    21:00 +25°C° 0,7 mm 3 m/S 744 mmHg 86%
    22:00 +24°C° 0,7 mm 3 m/S 744 mmHg 88%
    23:00 +22°C° 0,7 mm 3 m/S 744 mmHg 91%
    Mehr zeigen